Time,TemperatureF,DewpointF,PressureIn,WindDirection,WindDirectionDegrees,WindSpeedMPH,WindSpeedGustMPH,Humidity,HourlyPrecipIn,Conditions,Clouds,dailyrainin,SoftwareType,DateUTC
2013-06-03 00:03:00,66.0,64.0,29.93,WNW,296,0.0,-999.0,94,-99.99,,,-99.99,,2013-06-03 04:03:00,
2013-06-03 00:13:00,66.0,64.0,29.93,WNW,296,0.0,-999.0,94,-99.99,,,-99.99,,2013-06-03 04:13:00,
2013-06-03 00:23:00,66.0,64.0,29.93,WNW,296,0.0,-999.0,94,-99.99,,,-99.99,,2013-06-03 04:23:00,
2013-06-03 00:33:00,65.0,63.0,29.93,WNW,296,0.0,-999.0,94,-99.99,,,-99.99,,2013-06-03 04:33:00,
2013-06-03 00:42:00,65.0,63.0,29.93,WNW,296,0.0,-999.0,94,-99.99,,,-99.99,,2013-06-03 04:42:00,
2013-06-03 00:53:00,65.0,63.0,29.93,WNW,296,0.0,-999.0,94,-99.99,,,-99.99,,2013-06-03 04:53:00,
2013-06-03 01:02:00,65.0,63.0,29.93,WNW,296,0.0,-999.0,94,-99.99,,,-99.99,,2013-06-03 05:02:00,
2013-06-03 01:12:00,65.0,63.0,29.92,WNW,296,0.0,-999.0,94,-99.99,,,-99.99,,2013-06-03 05:12:00,
2013-06-03 01:22:00,65.0,63.0,29.92,WNW,296,0.0,-999.0,94,-99.99,,,-99.99,,2013-06-03 05:22:00,
2013-06-03 01:32:00,65.0,63.0,29.93,WNW,296,0.0,-999.0,94,-99.99,,,-99.99,,2013-06-03 05:32:00,
2013-06-03 01:42:00,65.0,63.0,29.93,WNW,296,0.0,-999.0,94,-99.99,,,-99.99,,2013-06-03 05:42:00,
2013-06-03 01:52:00,65.0,63.0,29.93,WNW,296,0.0,-999.0,94,-99.99,,,-99.99,,2013-06-03 05:52:00,
2013-06-03 02:02:00,64.0,62.0,29.93,WNW,296,0.0,-999.0,94,-99.99,,,-99.99,,2013-06-03 06:02:00,
2013-06-03 02:12:00,64.0,62.0,29.93,WNW,296,0.0,-999.0,94,-99.99,,,-99.99,,2013-06-03 06:12:00,
2013-06-03 02:22:00,64.0,63.0,29.93,WNW,296,0.0,-999.0,95,-99.99,,,-99.99,,2013-06-03 06:22:00,
2013-06-03 02:32:00,64.0,63.0,29.93,WNW,296,0.0,-999.0,95,-99.99,,,-99.99,,2013-06-03 06:32:00,
2013-06-03 02:42:00,64.0,63.0,29.93,WNW,296,0.0,-999.0,95,-99.99,,,-99.99,,2013-06-03 06:42:00,
2013-06-03 02:53:00,64.0,63.0,29.93,WNW,296,0.0,-999.0,95,-99.99,,,-99.99,,2013-06-03 06:53:00,
2013-06-03 03:02:00,64.0,63.0,29.93,WNW,296,0.0,-999.0,95,-99.99,,,-99.99,,2013-06-03 07:02:00,
2013-06-03 03:12:00,64.0,63.0,29.93,WNW,296,0.0,-999.0,95,-99.99,,,-99.99,,2013-06-03 07:12:00,
2013-06-03 03:22:00,64.0,62.0,29.93,WNW,296,0.0,-999.0,94,-99.99,,,-99.99,,2013-06-03 07:22:00,
2013-06-03 03:32:00,64.0,63.0,29.93,WNW,296,0.0,-999.0,95,-99.99,,,-99.99,,2013-06-03 07:32:00,
2013-06-03 03:42:00,64.0,63.0,29.93,WNW,296,0.0,-999.0,95,-99.99,,,-99.99,,2013-06-03 07:42:00,
2013-06-03 03:52:00,64.0,63.0,29.93,WNW,296,0.0,-999.0,95,-99.99,,,-99.99,,2013-06-03 07:52:00,
2013-06-03 04:02:00,64.0,63.0,29.93,WNW,296,0.0,-999.0,95,-99.99,,,-99.99,,2013-06-03 08:02:00,
2013-06-03 04:12:00,64.0,63.0,29.93,WNW,296,0.0,-999.0,95,-99.99,,,-99.99,,2013-06-03 08:12:00,
2013-06-03 04:22:00,63.0,61.0,29.93,WNW,296,1.0,-999.0,94,-99.99,,,-99.99,,2013-06-03 08:22:00,
2013-06-03 04:32:00,63.0,61.0,29.94,WNW,296,0.0,-999.0,94,-99.99,,,-99.99,,2013-06-03 08:32:00,
2013-06-03 04:42:00,63.0,61.0,29.94,WNW,296,0.0,-999.0,94,-99.99,,,-99.99,,2013-06-03 08:42:00,
2013-06-03 04:52:00,63.0,61.0,29.93,WNW,296,0.0,-999.0,94,-99.99,,,-99.99,,2013-06-03 08:52:00,
2013-06-03 05:02:00,62.0,60.0,29.94,WNW,296,0.0,-999.0,93,-99.99,,,-99.99,,2013-06-03 09:02:00,
2013-06-03 05:12:00,62.0,60.0,29.94,WNW,296,0.0,-999.0,93,-99.99,,,-99.99,,2013-06-03 09:12:00,
2013-06-03 05:22:00,62.0,60.0,29.94,WNW,296,0.0,-999.0,93,-99.99,,,-99.99,,2013-06-03 09:22:00,
2013-06-03 05:33:00,62.0,60.0,29.94,WNW,296,0.0,-999.0,94,-99.99,,,-99.99,,2013-06-03 09:33:00,
2013-06-03 05:42:00,62.0,60.0,29.94,WNW,296,0.0,-999.0,94,-99.99,,,-99.99,,2013-06-03 09:42:00,
2013-06-03 05:53:00,61.0,59.0,29.95,WNW,296,0.0,-999.0,94,-99.99,,,-99.99,,2013-06-03 09:53:00,
2013-06-03 06:03:00,61.0,59.0,29.95,WNW,296,0.0,-999.0,94,-99.99,,,-99.99,,2013-06-03 10:03:00,
2013-06-03 06:12:00,61.0,59.0,29.95,WNW,296,0.0,-999.0,94,-99.99,,,-99.99,,2013-06-03 10:12:00,
2013-06-03 06:22:00,61.0,59.0,29.95,WNW,296,0.0,-999.0,94,-99.99,,,-99.99,,2013-06-03 10:22:00,
2013-06-03 06:33:00,60.0,58.0,29.96,WNW,296,0.0,-999.0,94,-99.99,,,-99.99,,2013-06-03 10:33:00,
2013-06-03 06:42:00,60.0,58.0,29.96,WNW,296,0.0,-999.0,94,-99.99,,,-99.99,,2013-06-03 10:42:00,
2013-06-03 06:52:00,60.0,58.0,29.96,WNW,296,0.0,-999.0,94,-99.99,,,-99.99,,2013-06-03 10:52:00,
2013-06-03 07:02:00,60.0,59.0,29.96,WNW,296,0.0,-999.0,95,-99.99,,,-99.99,,2013-06-03 11:02:00,
2013-06-03 07:12:00,60.0,59.0,29.96,WNW,296,0.0,-999.0,95,-99.99,,,-99.99,,2013-06-03 11:12:00,
2013-06-03 07:22:00,60.0,59.0,29.97,WNW,296,0.0,-999.0,95,-99.99,,,-99.99,,2013-06-03 11:22:00,
2013-06-03 07:32:00,62.0,61.0,29.97,WNW,296,0.0,-999.0,95,-99.99,,,-99.99,,2013-06-03 11:32:00,
2013-06-03 07:42:00,62.0,61.0,29.97,WNW,296,0.0,-999.0,95,-99.99,,,-99.99,,2013-06-03 11:42:00,
2013-06-03 07:52:00,62.0,61.0,29.97,WNW,296,0.0,-999.0,95,-99.99,,,-99.99,,2013-06-03 11:52:00,
2013-06-03 08:02:00,62.0,61.0,29.98,WNW,296,0.0,-999.0,95,-99.99,,,-99.99,,2013-06-03 12:02:00,
2013-06-03 08:12:00,62.0,61.0,29.98,WNW,296,0.0,-999.0,95,-99.99,,,-99.99,,2013-06-03 12:12:00,
2013-06-03 08:22:00,62.0,61.0,29.98,WNW,296,0.0,-999.0,95,-99.99,,,-99.99,,2013-06-03 12:22:00,
2013-06-03 08:32:00,63.0,61.0,29.98,WNW,296,0.0,-999.0,94,-99.99,,,-99.99,,2013-06-03 12:32:00,
2013-06-03 08:42:00,63.0,61.0,29.98,WNW,296,0.0,-999.0,94,-99.99,,,-99.99,,2013-06-03 12:42:00,
2013-06-03 08:52:00,64.0,62.0,29.99,North,360,1.0,-999.0,92,-99.99,,,-99.99,,2013-06-03 12:52:00,
2013-06-03 09:02:00,64.0,61.0,29.99,North,5,1.0,-999.0,90,-99.99,,,-99.99,,2013-06-03 13:02:00,
2013-06-03 09:12:00,64.0,61.0,29.99,North,5,1.0,-999.0,90,-99.99,,,-99.99,,2013-06-03 13:12:00,
2013-06-03 09:22:00,64.0,61.0,30.00,North,5,1.0,-999.0,89,-99.99,,,-99.99,,2013-06-03 13:22:00,
2013-06-03 09:32:00,64.0,61.0,30.01,North,5,0.0,-999.0,90,-99.99,,,-99.99,,2013-06-03 13:32:00,
2013-06-03 09:42:00,64.0,61.0,30.01,North,5,0.0,-999.0,90,-99.99,,,-99.99,,2013-06-03 13:42:00,
2013-06-03 09:53:00,64.0,61.0,30.01,North,5,0.0,-999.0,90,-99.99,,,-99.99,,2013-06-03 13:53:00,
2013-06-03 10:02:00,65.0,62.0,30.00,North,5,0.0,-999.0,89,-99.99,,,-99.99,,2013-06-03 14:02:00,
2013-06-03 10:13:00,65.0,62.0,30.00,North,5,0.0,-999.0,89,-99.99,,,-99.99,,2013-06-03 14:13:00,
2013-06-03 10:22:00,65.0,61.0,30.01,North,5,1.0,-999.0,88,-99.99,,,-99.99,,2013-06-03 14:22:00,
2013-06-03 10:32:00,65.0,61.0,30.01,NNE,24,1.0,-999.0,88,-99.99,,,-99.99,,2013-06-03 14:32:00,
2013-06-03 10:42:00,65.0,61.0,30.01,NNE,24,1.0,-999.0,88,-99.99,,,-99.99,,2013-06-03 14:42:00,
2013-06-03 10:52:00,65.0,61.0,30.01,NNE,30,0.0,-999.0,87,-99.99,,,-99.99,,2013-06-03 14:52:00,
2013-06-03 11:02:00,66.0,61.0,30.02,NNE,30,0.0,-999.0,85,-99.99,,,-99.99,,2013-06-03 15:02:00,
2013-06-03 11:12:00,66.0,61.0,30.02,NNE,30,0.0,-999.0,85,-99.99,,,-99.99,,2013-06-03 15:12:00,
2013-06-03 11:22:00,66.0,61.0,30.02,NNE,30,0.0,-999.0,84,-99.99,,,-99.99,,2013-06-03 15:22:00,
2013-06-03 11:33:00,66.0,61.0,30.02,NNE,30,0.0,-999.0,85,-99.99,,,-99.99,,2013-06-03 15:33:00,
2013-06-03 11:43:00,66.0,61.0,30.02,NNE,30,0.0,-999.0,85,-99.99,,,-99.99,,2013-06-03 15:43:00,
2013-06-03 11:53:00,67.0,62.0,30.03,NNW,338,2.0,-999.0,83,-99.99,,,-99.99,,2013-06-03 15:53:00,
2013-06-03 12:03:00,67.0,62.0,30.03,North,355,1.0,-999.0,83,-99.99,,,-99.99,,2013-06-03 16:03:00,
2013-06-03 12:13:00,67.0,62.0,30.03,North,355,1.0,-999.0,83,-99.99,,,-99.99,,2013-06-03 16:13:00,
2013-06-03 12:23:00,68.0,61.0,30.03,North,351,1.0,-999.0,79,-99.99,,,-99.99,,2013-06-03 16:23:00,
2013-06-03 12:33:00,70.0,63.0,30.03,WNW,294,3.0,-999.0,78,-99.99,,,-99.99,,2013-06-03 16:33:00,
2013-06-03 12:42:00,70.0,64.0,30.03,NNW,332,2.0,-999.0,80,-99.99,,,-99.99,,2013-06-03 16:42:00,
2013-06-03 12:53:00,70.0,64.0,30.03,NNW,332,2.0,-999.0,80,-99.99,,,-99.99,,2013-06-03 16:53:00,
2013-06-03 13:02:00,71.0,63.0,30.02,NNW,336,3.0,-999.0,77,-99.99,,,-99.99,,2013-06-03 17:02:00,
2013-06-03 13:12:00,71.0,63.0,30.02,NNW,336,3.0,-999.0,77,-99.99,,,-99.99,,2013-06-03 17:12:00,
2013-06-03 13:22:00,71.0,62.0,30.02,NNE,20,2.0,-999.0,73,-99.99,,,-99.99,,2013-06-03 17:22:00,
2013-06-03 13:33:00,71.0,62.0,30.02,NNW,346,1.0,-999.0,72,-99.99,,,-99.99,,2013-06-03 17:33:00,
2013-06-03 13:42:00,71.0,62.0,30.02,NNW,346,1.0,-999.0,72,-99.99,,,-99.99,,2013-06-03 17:42:00,
2013-06-03 13:52:00,71.0,61.0,30.02,NNW,340,2.0,-999.0,71,-99.99,,,-99.99,,2013-06-03 17:52:00,
2013-06-03 14:02:00,71.0,62.0,30.01,NNW,338,2.0,-999.0,73,-99.99,,,-99.99,,2013-06-03 18:02:00,
2013-06-03 14:12:00,71.0,62.0,30.01,NNW,338,2.0,-999.0,73,-99.99,,,-99.99,,2013-06-03 18:12:00,
2013-06-03 14:22:00,71.0,62.0,30.01,NNW,338,2.0,-999.0,73,-99.99,,,-99.99,,2013-06-03 18:22:00,
2013-06-03 14:32:00,72.0,61.0,30.01,NE,36,2.0,-999.0,68,-99.99,,,-99.99,,2013-06-03 18:32:00,
2013-06-03 14:43:00,72.0,61.0,30.01,NE,36,2.0,-999.0,68,-99.99,,,-99.99,,2013-06-03 18:43:00,
2013-06-03 14:52:00,73.0,61.0,30.00,NNE,22,4.0,-999.0,65,-99.99,,,-99.99,,2013-06-03 18:52:00,
2013-06-03 15:03:00,73.0,60.0,29.99,NNE,23,2.0,-999.0,63,-99.99,,,-99.99,,2013-06-03 19:03:00,
2013-06-03 15:12:00,73.0,60.0,29.99,NNE,23,2.0,-999.0,63,-99.99,,,-99.99,,2013-06-03 19:12:00,
2013-06-03 15:23:00,73.0,60.0,29.99,NW,320,4.0,-999.0,63,-99.99,,,-99.99,,2013-06-03 19:23:00,
2013-06-03 15:32:00,74.0,58.0,29.98,NNE,12,3.0,-999.0,58,-99.99,,,-99.99,,2013-06-03 19:32:00,
2013-06-03 15:42:00,74.0,58.0,29.98,NNE,12,3.0,-999.0,58,-99.99,,,-99.99,,2013-06-03 19:42:00,
2013-06-03 15:52:00,75.0,60.0,29.98,NE,39,4.0,-999.0,60,-99.99,,,-99.99,,2013-06-03 19:52:00,
2013-06-03 16:02:00,75.0,58.0,29.98,WNW,298,4.0,-999.0,56,-99.99,,,-99.99,,2013-06-03 20:02:00,
2013-06-03 16:12:00,75.0,58.0,29.98,WNW,298,4.0,-999.0,56,-99.99,,,-99.99,,2013-06-03 20:12:00,
2013-06-03 16:22:00,76.0,60.0,29.97,NE,46,4.0,-999.0,58,-99.99,,,-99.99,,2013-06-03 20:22:00,
2013-06-03 16:33:00,76.0,60.0,29.98,NNE,26,4.0,-999.0,57,-99.99,,,-99.99,,2013-06-03 20:33:00,
2013-06-03 16:43:00,76.0,60.0,29.98,NNE,26,4.0,-999.0,57,-99.99,,,-99.99,,2013-06-03 20:43:00,
2013-06-03 16:52:00,75.0,58.0,29.97,NW,316,4.0,-999.0,56,-99.99,,,-99.99,,2013-06-03 20:52:00,
2013-06-03 17:02:00,75.0,59.0,29.97,North,355,6.0,-999.0,57,-99.99,,,-99.99,,2013-06-03 21:02:00,
2013-06-03 17:12:00,75.0,59.0,29.97,North,355,6.0,-999.0,57,-99.99,,,-99.99,,2013-06-03 21:12:00,
2013-06-03 17:22:00,74.0,61.0,29.96,North,360,1.0,-999.0,63,-99.99,,,-99.99,,2013-06-03 21:22:00,
2013-06-03 17:33:00,74.0,58.0,29.97,North,360,1.0,-999.0,57,-99.99,,,-99.99,,2013-06-03 21:33:00,
2013-06-03 17:43:00,74.0,58.0,29.97,North,360,1.0,-999.0,57,-99.99,,,-99.99,,2013-06-03 21:43:00,
2013-06-03 17:53:00,75.0,60.0,29.97,North,5,4.0,-999.0,59,-99.99,,,-99.99,,2013-06-03 21:53:00,
2013-06-03 18:03:00,76.0,59.0,29.97,North,5,1.0,-999.0,55,-99.99,,,-99.99,,2013-06-03 22:03:00,
2013-06-03 18:12:00,76.0,59.0,29.97,North,5,1.0,-999.0,55,-99.99,,,-99.99,,2013-06-03 22:12:00,
2013-06-03 18:22:00,76.0,58.0,29.96,North,360,3.0,-999.0,54,-99.99,,,-99.99,,2013-06-03 22:22:00,
2013-06-03 18:33:00,75.0,59.0,29.96,NNW,332,2.0,-999.0,58,-99.99,,,-99.99,,2013-06-03 22:33:00,
2013-06-03 18:42:00,75.0,59.0,29.96,NNW,332,2.0,-999.0,58,-99.99,,,-99.99,,2013-06-03 22:42:00,
2013-06-03 18:52:00,73.0,60.0,29.96,NNW,328,3.0,-999.0,63,-99.99,,,-99.99,,2013-06-03 22:52:00,
2013-06-03 19:02:00,73.0,59.0,29.96,NNE,23,2.0,-999.0,62,-99.99,,,-99.99,,2013-06-03 23:02:00,
2013-06-03 19:12:00,73.0,59.0,29.96,NNE,23,2.0,-999.0,62,-99.99,,,-99.99,,2013-06-03 23:12:00,
2013-06-03 19:23:00,74.0,60.0,29.96,North,10,2.0,-999.0,61,-99.99,,,-99.99,,2013-06-03 23:23:00,
2013-06-03 19:32:00,74.0,58.0,29.96,North,360,2.0,-999.0,57,-99.99,,,-99.99,,2013-06-03 23:32:00,
2013-06-03 19:42:00,74.0,58.0,29.96,North,360,2.0,-999.0,57,-99.99,,,-99.99,,2013-06-03 23:42:00,
2013-06-03 19:52:00,74.0,60.0,29.97,NNE,19,1.0,-999.0,61,-99.99,,,-99.99,,2013-06-03 23:52:00,
2013-06-03 20:02:00,73.0,58.0,29.97,North,355,2.0,-999.0,59,-99.99,,,-99.99,,2013-06-04 00:02:00,
2013-06-03 20:12:00,73.0,58.0,29.97,North,355,2.0,-999.0,59,-99.99,,,-99.99,,2013-06-04 00:12:00,
2013-06-03 20:22:00,73.0,57.0,29.98,North,355,1.0,-999.0,58,-99.99,,,-99.99,,2013-06-04 00:22:00,
2013-06-03 20:32:00,73.0,58.0,29.99,North,355,0.0,-999.0,59,-99.99,,,-99.99,,2013-06-04 00:32:00,
2013-06-03 20:42:00,73.0,58.0,29.99,North,355,0.0,-999.0,59,-99.99,,,-99.99,,2013-06-04 00:42:00,
2013-06-03 20:52:00,72.0,58.0,29.99,North,355,0.0,-999.0,61,-99.99,,,-99.99,,2013-06-04 00:52:00,
2013-06-03 21:02:00,71.0,59.0,29.99,North,355,0.0,-999.0,65,-99.99,,,-99.99,,2013-06-04 01:02:00,
2013-06-03 21:12:00,71.0,59.0,29.99,North,355,0.0,-999.0,65,-99.99,,,-99.99,,2013-06-04 01:12:00,
2013-06-03 21:22:00,69.0,60.0,30.00,North,355,0.0,-999.0,72,-99.99,,,-99.99,,2013-06-04 01:22:00,
2013-06-03 21:32:00,66.0,58.0,30.01,North,355,0.0,-999.0,76,-99.99,,,-99.99,,2013-06-04 01:32:00,
2013-06-03 21:42:00,66.0,58.0,30.01,North,355,0.0,-999.0,76,-99.99,,,-99.99,,2013-06-04 01:42:00,
2013-06-03 21:52:00,64.0,58.0,30.02,North,355,0.0,-999.0,80,-99.99,,,-99.99,,2013-06-04 01:52:00,
2013-06-03 22:02:00,63.0,57.0,30.03,North,355,0.0,-999.0,81,-99.99,,,-99.99,,2013-06-04 02:02:00,
2013-06-03 22:12:00,63.0,57.0,30.03,North,355,0.0,-999.0,81,-99.99,,,-99.99,,2013-06-04 02:12:00,
2013-06-03 22:22:00,62.0,57.0,30.03,North,355,0.0,-999.0,83,-99.99,,,-99.99,,2013-06-04 02:22:00,
2013-06-03 22:32:00,62.0,57.0,30.04,North,355,0.0,-999.0,84,-99.99,,,-99.99,,2013-06-04 02:32:00,
2013-06-03 22:42:00,62.0,57.0,30.04,North,355,0.0,-999.0,84,-99.99,,,-99.99,,2013-06-04 02:42:00,
2013-06-03 22:52:00,61.0,56.0,30.04,North,355,0.0,-999.0,85,-99.99,,,-99.99,,2013-06-04 02:52:00,
2013-06-03 23:02:00,60.0,56.0,30.05,North,355,0.0,-999.0,86,-99.99,,,-99.99,,2013-06-04 03:02:00,
2013-06-03 23:12:00,60.0,56.0,30.05,North,355,0.0,-999.0,86,-99.99,,,-99.99,,2013-06-04 03:12:00,
2013-06-03 23:22:00,59.0,55.0,30.05,North,355,0.0,-999.0,87,-99.99,,,-99.99,,2013-06-04 03:22:00,
2013-06-03 23:33:00,59.0,55.0,30.06,North,355,0.0,-999.0,88,-99.99,,,-99.99,,2013-06-04 03:33:00,
2013-06-03 23:43:00,59.0,55.0,30.06,North,355,0.0,-999.0,88,-99.99,,,-99.99,,2013-06-04 03:43:00,
2013-06-03 23:53:00,58.0,55.0,30.06,North,355,0.0,-999.0,89,-99.99,,,-99.99,,2013-06-04 03:53:00,